Theta_e
329 329 329 330 331 331 331 331 331 331 330 330 330 331 330 330 330 330 329 329 329 329 328 327 326 325 324 321 322 322 326 321 313 310 308 313 321 328 329 332 336 336 331 316 313 310 307 306 306 310 311 311 313 308 315 312 313 312 303 301 299 302 301 305 303 303 305 302 303 304 306 305 302 304 305 307 306 306 307 306 311 311 314 318 320 328 334 333
328 328 329 330 330 331 331 331 330 330 330 330 330 330 330 330 330 329 328 328 329 328 327 327 326 325 323 323 323 324 321 317 311 306 309 319 330 329 333 338 337 333 324 312 309 308 306 305 306 309 309 305 314 307 311 310 312 306 303 302 299 302 304 306 306 305 303 303 304 305 306 306 305 305 306 303 303 304 303 305 307 307 311 316 319 324 329 329
328 328 328 329 330 330 330 330 330 330 330 329 329 329 329 329 329 329 328 329 328 328 326 326 325 323 322 323 321 325 321 313 308 303 308 323 324 330 333 334 337 329 316 311 310 309 308 307 307 307 308 305 308 306 309 308 307 307 305 301 303 308 304 305 304 303 305 306 304 305 306 306 307 306 307 303 303 303 301 302 305 305 307 314 318 321 325 327
327 327 327 328 329 330 330 330 330 330 329 329 329 329 328 328 328 328 328 328 328 327 327 326 325 323 321 320 323 323 318 311 301 306 315 330 331 334 333 336 336 329 313 313 306 308 310 309 306 307 306 305 307 309 305 308 304 307 304 303 305 307 304 304 305 303 303 306 305 305 306 304 305 306 305 303 302 301 303 306 305 305 307 312 317 320 325 327
327 327 327 327 328 329 329 329 329 329 329 328 328 328 327 327 328 327 327 327 327 327 327 326 326 324 324 323 323 324 312 303 307 312 321 331 336 334 336 336 335 322 313 308 308 308 308 306 304 305 305 301 305 306 305 308 307 307 303 304 304 306 304 304 304 303 303 304 306 305 303 303 306 305 304 303 301 301 304 307 308 308 309 312 316 320 325 326
326 326 326 327 328 329 329 329 329 329 329 328 328 328 327 327 327 326 326 327 327 326 327 326 325 323 323 323 323 317 311 298 308 313 328 334 337 337 336 336 332 313 309 308 308 307 306 304 303 302 302 302 302 301 304 306 306 301 304 303 303 303 303 302 303 301 303 304 304 303 305 306 303 303 305 304 303 304 307 308 309 311 311 317 318 321 323 325
325 325 326 326 326 328 328 328 329 329 329 328 328 327 327 327 326 326 326 326 326 326 326 325 323 324 321 321 320 312 305 306 314 321 333 337 338 337 336 331 322 309 308 306 306 304 304 302 302 302 302 302 303 301 302 303 304 303 302 303 302 303 302 302 301 299 301 304 304 306 306 302 303 300 305 304 307 307 306 309 309 311 320 321 319 320 323 323
325 324 324 324 325 326 327 327 328 328 328 328 327 327 327 326 326 326 326 325 325 325 324 324 323 321 319 317 308 303 304 304 311 319 330 332 329 328 323 316 310 309 308 306 306 304 304 301 300 303 302 300 302 302 302 302 303 301 302 302 301 302 301 301 301 300 301 302 303 304 302 302 303 303 302 303 306 307 308 312 313 311 315 317 318 318 322 323
324 324 323 323 324 324 325 327 327 326 327 327 327 327 326 326 325 325 325 325 325 325 323 323 321 320 321 316 308 303 301 312 315 320 331 320 315 314 316 311 310 308 308 308 307 306 304 301 302 304 301 301 304 301 301 301 299 302 302 302 301 300 301 301 301 301 301 301 302 301 302 303 302 301 302 305 306 307 308 311 310 313 313 313 315 318 320 322
324 324 323 322 323 323 325 325 326 326 327 327 326 326 326 325 325 324 324 324 325 324 323 322 321 320 318 312 310 302 311 313 317 321 328 314 312 312 312 311 309 308 306 306 306 305 304 303 302 306 305 302 304 301 304 302 300 305 302 302 301 300 301 301 301 301 302 302 302 302 302 301 302 301 300 306 306 305 306 307 309 311 311 314 315 316 320 322
324 323 323 322 322 323 325 325 324 326 326 326 326 325 325 324 324 324 323 324 323 323 322 322 321 319 315 313 305 303 319 316 316 321 324 314 311 310 310 310 309 308 308 307 305 307 307 306 307 305 304 301 302 301 303 302 303 304 303 301 300 300 301 301 301 300 302 300 302 303 301 302 302 301 301 304 304 305 304 305 309 308 309 312 315 317 320 321
324 324 323 323 322 323 325 325 324 325 325 325 325 324 324 323 323 323 323 323 322 323 321 323 320 316 311 311 307 310 314 317 316 318 322 314 310 313 314 311 309 310 309 305 306 312 310 308 307 303 296 304 298 302 302 303 304 302 303 299 299 301 300 300 300 300 301 300 301 303 300 299 299 298 304 304 304 304 305 306 307 307 307 311 314 317 319 321
323 323 323 323 323 323 324 324 324 325 324 324 324 323 323 323 322 323 323 322 322 322 322 323 319 314 309 303 308 317 316 318 316 317 318 317 313 312 313 313 312 311 311 308 307 312 310 308 307 302 303 301 300 297 303 305 303 303 302 301 298 299 299 301 301 301 300 300 301 301 293 298 300 302 304 304 304 304 304 305 306 307 308 309 314 316 318 319
322 322 322 322 322 322 323 324 324 324 323 323 323 322 322 322 322 322 322 321 323 323 321 323 320 316 308 304 312 312 315 317 315 314 314 314 312 312 310 311 312 310 315 309 310 312 309 308 307 305 305 302 298 300 301 301 302 298 300 301 297 296 296 300 301 300 300 300 300 301 295 298 302 304 304 304 304 304 304 304 306 307 308 309 311 312 315 318
321 321 321 321 321 321 322 323 323 323 323 322 322 321 321 320 321 321 322 321 322 323 322 323 318 311 303 304 310 314 321 316 311 312 315 311 311 309 308 310 310 310 309 311 310 309 308 309 306 301 300 301 302 299 296 298 299 300 296 293 298 296 298 298 300 299 298 298 301 300 295 298 302 302 302 303 303 303 304 305 305 306 307 309 309 310 311 314
321 320 321 321 321 321 321 322 322 322 322 321 320 320 320 320 320 320 320 320 322 322 322 313 312 309 300 298 304 321 315 308 310 315 315 314 312 309 311 309 309 307 307 305 307 307 308 307 302 302 300 301 298 297 296 295 296 298 296 296 295 297 297 297 299 301 299 299 299 299 296 298 298 300 301 302 303 303 303 304 305 305 306 306 307 308 308 310
321 321 320 320 321 321 321 321 321 321 320 320 319 319 319 319 320 320 320 321 321 320 315 307 312 313 297 305 313 308 306 309 313 314 312 313 313 311 310 308 306 306 306 305 307 308 307 304 302 302 303 298 298 297 293 292 292 294 297 295 298 295 296 295 297 300 302 300 296 298 295 297 301 302 301 302 303 303 302 303 304 305 305 306 307 306 307 307
320 320 320 320 321 321 321 321 320 320 319 319 317 318 317 319 320 320 320 319 320 320 317 310 312 302 299 303 300 303 310 310 311 313 313 312 312 311 309 306 306 305 305 303 304 303 304 301 302 297 298 298 297 295 291 288 292 293 293 294 296 297 296 295 295 298 299 299 299 298 296 297 301 303 302 302 303 302 302 303 304 304 305 306 306 307 307 307
320 320 320 320 320 320 320 320 320 319 318 318 319 319 320 320 319 317 313 313 306 300 297 299 301 293 295 299 306 309 310 312 314 311 307 309 310 310 308 309 308 304 301 300 300 302 302 302 301 297 293 295 295 296 294 296 297 296 295 294 295 293 294 294 296 296 298 297 296 298 296 298 300 302 303 303 303 302 303 304 304 305 305 306 306 307 307 308
319 320 320 320 320 319 320 319 319 318 318 316 314 314 312 306 306 304 310 310 301 300 301 302 304 303 299 302 304 309 312 312 306 310 310 310 308 306 306 307 307 305 301 297 299 300 305 296 292 293 296 297 298 298 298 298 298 298 298 298 295 296 295 296 297 298 297 297 296 297 298 299 300 301 303 304 304 303 303 303 303 304 305 305 306 306 307 308
319 319 319 319 320 319 319 318 318 318 317 314 312 308 300 301 297 295 302 304 305 305 303 304 304 303 302 305 308 306 304 304 308 308 309 312 308 305 301 304 301 298 299 300 299 301 300 294 294 296 297 298 298 299 299 297 297 296 296 296 295 296 294 297 297 298 299 296 297 299 298 299 300 302 303 304 303 302 303 303 303 304 305 306 307 307 308 309
318 319 319 319 319 319 318 318 318 317 317 314 312 307 307 308 309 313 305 296 302 305 303 304 304 303 308 308 310 310 308 302 303 307 310 309 306 302 301 302 299 296 300 300 299 296 294 292 296 298 298 298 298 298 298 297 296 297 295 295 294 294 296 295 297 298 298 296 296 299 296 298 300 301 303 303 302 303 304 305 305 305 305 305 306 308 309 311
318 319 318 318 318 319 317 318 317 317 313 310 308 309 306 311 314 313 308 301 298 303 303 303 300 302 303 308 309 308 302 299 298 305 306 309 303 303 302 300 298 298 298 299 294 294 291 294 298 299 299 297 296 297 297 297 297 296 295 294 292 296 293 291 295 297 296 296 297 297 296 298 300 302 303 304 304 304 305 305 306 306 305 306 307 309 310 311
318 318 318 317 318 317 317 317 318 314 311 309 310 309 313 313 316 313 306 299 296 298 302 303 303 303 303 301 309 307 302 301 303 302 309 307 302 305 302 300 298 298 295 297 296 294 293 295 293 298 299 298 295 296 295 295 293 298 298 296 294 295 295 296 294 296 295 296 295 296 295 295 298 298 299 303 305 305 306 307 307 308 310 311 314 314 315 310
317 317 317 317 317 317 316 317 312 310 312 310 310 314 313 315 313 311 304 297 298 297 304 303 306 306 306 312 311 303 304 305 305 307 309 308 303 301 300 303 301 296 297 298 297 296 295 293 296 295 297 297 297 294 295 296 293 295 299 298 298 298 296 295 296 294 294 294 297 296 289 290 297 298 298 301 301 301 304 303 303 304 306 307 306 308 310 312
317 317 317 317 317 316 318 309 308 310 308 306 310 315 316 315 312 308 302 293 288 296 300 293 307 299 312 304 309 306 304 298 306 308 308 308 308 304 301 299 301 295 297 297 296 298 295 291 295 296 297 298 297 295 297 298 293 293 295 300 298 297 297 297 296 296 290 289 295 296 289 287 298 297 299 300 299 300 302 302 302 303 304 306 307 307 307 308
317 316 317 317 317 317 309 302 311 310 303 306 312 315 315 314 315 306 298 289 286 296 292 302 299 301 312 305 306 305 289 294 305 307 307 308 303 307 299 297 298 300 301 300 295 292 292 292 294 298 297 297 296 293 298 298 294 292 296 300 298 299 298 297 297 296 295 295 295 294 295 289 290 296 301 300 298 298 300 302 303 303 303 305 306 306 306 307
317 317 317 317 317 315 309 310 308 304 305 312 315 315 313 314 312 305 295 279 280 299 293 294 299 311 308 307 308 299 300 303 297 302 307 307 304 302 300 298 297 297 298 297 288 298 295 292 295 295 297 295 294 297 302 299 295 295 294 300 298 298 298 298 297 295 297 294 290 293 299 288 288 295 299 299 296 298 299 300 303 304 305 305 305 305 305 306
317 316 316 316 316 315 316 310 307 304 311 313 315 314 313 313 308 296 289 279 295 294 309 294 310 304 304 306 302 302 299 302 295 302 306 304 305 302 297 300 300 298 297 298 293 294 296 295 297 299 296 294 296 292 297 301 295 294 298 300 299 300 300 299 296 295 294 290 286 292 295 287 288 295 296 297 296 297 298 300 302 305 304 305 305 307 307 308
317 316 316 316 315 311 311 312 308 312 312 313 314 313 312 306 297 288 282 277 296 287 296 298 298 296 301 297 297 299 298 299 301 302 303 301 302 303 299 304 300 296 296 298 298 295 296 296 296 296 296 297 293 294 297 297 299 298 300 298 297 297 297 296 298 294 290 285 287 294 293 291 285 294 295 296 297 298 299 301 302 303 304 304 305 307 309 308
316 316 316 315 309 310 310 305 309 312 312 312 312 310 305 299 289 284 277 287 296 294 297 294 294 300 296 295 292 297 299 299 299 300 297 301 298 300 300 298 303 299 297 297 296 297 296 295 297 296 294 296 298 296 298 297 299 301 298 295 295 293 295 292 291 292 285 284 288 289 291 293 284 290 297 300 298 298 300 300 301 302 303 305 306 306 306 306
316 316 316 313 312 314 306 304 312 314 312 312 310 304 296 285 290 281 280 297 286 290 292 291 297 296 295 297 296 295 295 297 299 298 296 296 295 294 295 293 295 288 288 290 290 296 294 294 297 296 297 296 299 295 294 296 297 298 296 294 288 286 287 283 287 283 284 284 286 288 290 288 288 292 297 298 299 298 299 300 301 302 302 304 305 305 305 306
315 315 314 314 312 311 312 314 314 314 313 312 307 301 290 284 277 287 288 289 286 294 291 298 295 295 295 295 294 296 300 293 299 298 299 298 296 296 298 297 298 295 287 292 292 290 292 297 296 297 296 296 299 292 290 289 294 295 293 291 287 284 282 280 284 286 286 286 287 287 292 285 292 294 299 298 300 300 301 301 303 302 301 302 304 304 304 306
315 314 311 312 312 313 314 313 313 314 311 310 301 295 290 282 281 293 290 290 292 296 297 295 296 296 295 291 294 297 293 298 297 297 298 295 295 293 295 298 298 297 298 292 289 289 285 285 291 294 291 299 296 299 295 294 293 294 304 294 290 288 284 280 283 281 282 285 284 288 285 285 287 291 298 300 301 298 299 299 301 301 302 303 303 303 304 304
314 314 313 312 312 314 312 313 313 313 311 305 296 290 283 282 288 287 289 290 293 295 294 298 294 294 292 294 297 297 296 292 298 297 296 294 292 293 293 294 298 299 299 290 294 290 289 289 293 295 295 296 296 298 298 298 294 296 296 296 290 289 294 285 286 286 285 283 283 283 285 292 292 300 300 302 301 300 298 299 298 299 300 301 301 302 303 305
312 312 313 309 310 312 313 313 313 312 307 300 291 286 284 289 286 293 291 296 294 293 293 295 295 291 290 292 296 295 299 296 296 296 294 295 296 293 297 297 296 299 296 291 294 288 290 287 293 297 297 295 295 295 296 299 287 292 293 288 291 295 292 284 283 284 282 284 284 289 288 292 297 297 299 300 299 299 299 298 297 298 300 302 302 304 305 307
309 310 306 309 310 313 313 313 312 310 305 297 290 285 292 294 298 296 296 293 294 296 293 288 290 290 289 288 291 293 295 299 296 295 290 296 293 296 296 297 300 299 299 297 292 300 289 288 292 294 293 295 295 293 298 296 297 293 286 292 295 298 298 290 283 284 283 281 284 288 286 287 289 286 298 299 297 298 299 298 298 299 301 300 302 305 306 308
307 307 307 307 311 312 313 313 311 309 303 295 288 291 296 294 299 298 298 297 297 297 293 290 291 295 289 290 289 292 295 292 293 294 292 294 290 300 297 296 300 299 299 300 294 294 298 285 290 290 293 295 297 298 295 297 295 295 293 302 292 285 285 287 286 279 280 280 282 285 287 287 290 291 294 293 295 297 298 300 298 298 299 300 302 305 307 309
307 305 298 307 312 312 312 312 309 303 299 291 290 288 295 297 300 298 298 298 299 296 292 293 291 293 294 290 292 293 294 288 294 292 290 293 288 298 297 299 297 299 299 299 294 297 299 289 286 293 293 294 295 295 287 291 297 296 296 293 296 292 289 286 286 287 286 282 282 284 285 284 293 293 295 296 297 298 298 300 299 299 300 301 302 306 307 307
303 300 298 309 311 312 312 310 304 300 295 288 290 291 298 296 297 300 298 298 296 295 293 294 295 291 294 293 294 290 294 293 293 292 293 295 292 297 296 300 298 297 298 297 297 300 290 293 285 289 294 294 287 292 291 292 288 289 291 289 292 294 294 292 294 287 285 283 283 283 282 287 295 298 296 297 298 299 299 300 303 302 302 303 305 307 307 307
306 301 298 309 311 312 311 304 298 294 292 295 296 295 297 295 296 298 303 304 299 298 295 296 295 291 293 293 292 296 292 293 294 292 292 294 293 288 297 299 300 296 297 297 296 297 289 287 287 286 287 287 291 294 294 296 295 292 291 289 290 288 286 284 283 290 285 285 283 283 282 289 298 298 298 298 299 300 300 300 301 302 302 304 307 307 307 307
301 293 295 307 311 312 304 294 294 297 294 291 291 296 295 298 296 297 298 300 301 296 300 299 298 296 295 295 295 294 293 292 294 293 294 292 296 295 298 301 301 299 295 291 293 298 296 294 289 285 288 290 292 293 292 293 291 294 293 292 295 292 291 287 282 285 285 285 284 286 283 286 300 299 299 300 301 299 297 297 298 300 302 302 304 307 308 309
300 296 305 307 310 310 301 293 295 293 291 296 298 297 298 298 296 298 296 298 296 300 297 297 297 296 297 296 296 294 294 291 294 292 295 295 296 298 298 299 301 299 298 294 297 294 295 289 287 286 289 290 291 292 292 290 294 293 293 294 295 290 291 290 289 289 287 285 284 285 282 287 299 298 295 293 291 293 294 294 297 300 301 301 301 303 304 303
297 296 298 306 310 308 298 288 288 290 292 297 297 297 299 298 297 295 295 297 296 296 295 296 297 298 296 299 297 294 296 288 295 295 293 297 294 299 299 301 300 297 296 294 293 298 289 290 290 285 284 286 288 291 291 294 294 290 291 293 295 296 295 292 291 290 287 287 286 285 281 287 300 296 297 296 296 294 296 296 295 297 300 301 301 302 302 303
298 301 299 300 305 304 293 295 292 290 291 290 293 292 294 293 300 298 297 296 300 296 296 295 297 298 298 299 297 298 297 294 290 296 297 297 296 295 302 301 301 298 300 305 299 300 292 291 290 283 280 278 278 279 282 285 287 291 290 290 295 293 293 290 286 287 284 287 286 285 285 292 295 293 294 296 294 296 297 298 298 298 299 300 303 304 304 303
292 285 294 296 300 299 300 300 298 293 291 291 289 293 294 292 294 296 299 298 301 299 297 298 299 299 296 296 295 294 295 297 295 293 294 294 294 294 299 302 299 300 299 296 299 298 290 294 293 291 287 285 287 289 293 295 290 287 290 291 292 293 294 292 290 287 284 287 286 288 289 290 292 293 293 296 293 296 298 299 298 299 299 301 305 307 306 306
297 287 288 286 295 295 295 299 297 296 291 294 288 293 289 292 294 294 300 295 297 298 298 297 297 294 294 295 294 294 296 295 296 296 294 295 295 295 296 299 301 298 292 296 299 296 291 289 292 294 293 293 295 294 297 295 291 291 290 290 292 291 291 289 287 286 291 288 284 291 293 289 292 294 294 296 297 297 299 300 300 301 303 303 303 304 301 303
288 292 294 295 288 286 288 291 297 295 297 295 290 295 292 292 291 289 295 298 299 300 294 295 297 296 296 294 295 290 294 294 294 291 296 296 292 293 292 295 297 296 295 298 303 296 291 287 293 293 293 295 296 297 298 295 295 294 293 293 292 293 291 287 288 293 293 288 286 292 293 290 293 295 297 297 298 299 299 301 303 303 304 304 302 301 300 301
293 293 294 297 288 291 292 296 297 296 294 294 294 294 290 292 290 294 293 292 296 295 298 289 293 295 296 298 296 292 294 289 288 293 292 291 291 289 289 290 294 297 297 296 297 297 292 289 293 294 292 293 296 297 298 295 295 294 293 294 294 293 292 292 292 293 293 292 294 293 294 295 296 297 298 299 300 301 300 299 299 300 301 302 302 301 300 300
287 289 288 295 295 293 295 296 295 294 291 293 289 290 293 292 291 294 295 293 290 293 298 295 294 296 297 297 296 293 295 296 294 290 295 293 289 292 291 293 291 292 295 293 295 294 293 288 294 294 288 289 294 295 295 296 295 291 294 295 294 293 292 293 293 293 293 293 294 294 293 293 298 301 301 301 301 300 299 299 299 301 302 301 301 301 301 301
292 292 293 290 287 292 295 296 294 292 291 292 289 292 293 294 292 296 295 297 294 293 295 294 297 296 298 297 296 295 300 299 299 298 297 296 290 296 292 292 295 288 292 291 292 293 293 289 291 290 286 286 292 291 291 290 289 289 292 294 293 292 290 292 290 294 293 290 292 293 290 292 297 301 301 302 299 298 299 300 301 302 301 301 301 302 302 303
293 297 294 293 288 293 291 295 295 292 287 291 292 293 293 293 296 296 292 297 300 301 298 297 298 296 296 296 295 297 302 302 304 303 300 299 300 298 297 297 296 292 289 290 293 291 290 289 288 288 285 285 292 292 288 287 286 284 286 292 294 294 294 294 295 295 295 296 290 288 290 296 299 300 298 297 298 298 299 300 302 303 304 303 303 303 304 305
Wind_Speed
25 23 23 23 24 25 24 23 23 23 23 24 24 22 22 18 17 17 16 14 15 15 14 13 13 12 8 4 1 1 1 2 5 3 2 10 4 1 4 4 7 6 4 5 4 3 4 2 3 3 4 4 2 4 4 4 1 4 5 6 7 5 9 8 8 7 5 8 10 11 12 11 9 7 4 2 4 2 5 6 4 2 4 8 7 4 9 13
26 24 23 23 23 25 24 24 24 23 22 23 23 23 21 20 19 17 15 16 16 15 15 14 13 13 11 7 5 3 1 3 6 8 13 2 7 8 6 3 3 2 3 4 3 4 3 2 4 3 5 5 3 3 5 3 4 7 6 7 8 8 1 3 2 4 2 7 12 11 11 10 7 11 7 8 8 7 6 7 6 6 7 9 9 8 9 11
25 24 24 23 23 24 24 24 24 23 22 23 23 23 22 20 18 18 15 16 15 16 15 15 14 12 10 7 2 5 3 4 7 13 14 12 16 11 7 6 7 7 4 5 4 3 4 5 4 5 5 6 6 5 6 4 5 9 6 8 8 6 5 4 4 4 5 8 11 11 10 5 5 9 8 8 8 9 9 8 9 10 11 10 10 11 10 12
25 24 25 24 23 23 23 24 23 23 22 22 21 20 20 19 18 18 16 15 15 16 16 15 15 14 12 9 5 7 2 4 6 5 5 12 7 6 10 10 10 8 4 2 5 5 3 4 7 6 3 6 5 3 7 4 5 3 6 6 5 8 6 5 5 5 3 0 11 11 9 7 6 6 9 7 7 9 9 9 11 12 11 12 12 12 12 12
25 24 24 25 23 22 22 22 23 23 22 22 20 20 19 18 18 19 18 18 16 15 17 17 16 16 13 10 8 3 3 3 5 7 4 10 5 7 10 12 12 10 7 3 2 5 4 5 5 6 5 6 4 5 9 7 3 3 9 4 7 2 4 6 5 5 3 3 10 10 12 8 7 4 10 9 8 6 9 10 11 11 11 13 14 13 12 13
26 25 23 25 24 22 22 22 21 23 21 21 20 19 18 18 18 19 18 19 18 18 17 17 17 14 11 9 6 5 3 4 1 2 3 4 5 12 13 11 8 6 7 5 1 4 5 6 7 6 6 6 6 7 7 4 3 7 5 1 4 6 2 3 4 2 0 6 10 10 9 8 10 6 10 10 12 5 6 8 7 7 1 14 14 14 13 13
26 25 24 23 24 24 22 21 21 20 19 21 21 20 19 18 18 18 18 19 19 18 18 18 18 16 14 9 5 3 5 8 1 2 2 7 10 11 10 10 8 6 6 5 5 6 6 7 8 8 7 7 6 9 3 4 3 6 3 3 2 6 3 2 3 2 2 5 8 6 7 8 10 8 7 10 11 7 7 8 5 4 7 12 13 13 15 16
25 25 24 23 23 23 22 21 20 20 21 21 21 20 19 19 18 17 17 20 18 19 18 17 16 16 15 7 7 1 5 8 1 1 5 7 11 12 11 8 7 7 8 8 7 9 6 9 9 7 7 7 5 9 5 4 7 9 6 3 3 2 3 2 3 3 2 2 4 6 8 7 10 2 5 11 11 5 5 4 4 3 6 8 11 13 13 13
25 25 24 23 22 21 21 20 19 19 18 20 19 19 20 19 18 16 16 17 19 20 18 16 16 13 8 6 4 6 8 10 2 5 6 3 8 10 10 7 6 9 6 6 6 6 5 8 8 8 4 10 4 8 6 7 7 10 1 5 4 3 3 2 3 3 4 3 4 7 9 4 3 3 6 8 10 6 8 5 5 5 6 9 10 12 13 13
25 25 25 23 22 20 20 20 19 18 19 20 19 20 20 20 18 17 16 18 18 19 17 17 15 13 6 6 5 6 3 5 2 5 5 2 6 8 2 7 9 8 6 7 6 8 9 6 6 3 5 6 1 4 6 10 1 3 8 4 4 3 2 0 3 4 3 4 6 8 8 5 2 4 6 10 6 7 6 6 5 4 6 8 8 9 11 12
25 24 25 24 22 21 21 20 20 20 18 17 20 21 20 19 18 18 18 18 15 17 17 17 16 14 8 8 10 10 1 3 1 4 5 3 5 7 5 7 8 8 8 5 8 11 9 4 3 0 2 4 2 5 6 2 4 5 10 8 5 3 2 2 2 4 4 3 5 4 5 3 5 4 5 9 5 6 9 9 8 7 6 7 8 8 8 9
25 25 24 24 22 21 21 21 21 20 19 19 20 21 20 18 18 17 17 18 15 16 17 17 17 8 7 4 10 8 0 2 2 3 5 5 3 3 2 4 7 6 9 6 7 4 3 2 3 5 4 1 6 5 6 3 4 8 10 7 5 4 4 3 4 4 4 2 5 2 5 6 8 9 9 7 5 7 8 9 9 9 8 7 8 8 8 8
26 25 25 24 23 23 22 21 21 21 21 21 19 19 18 19 19 18 17 16 18 19 16 16 8 5 11 7 9 6 4 2 4 4 6 4 4 3 2 3 1 1 2 4 5 4 3 1 4 8 0 4 1 3 4 5 5 6 6 5 6 6 7 6 2 3 4 3 3 3 6 8 14 15 9 8 7 7 8 9 9 7 8 8 8 8 8 8
26 25 25 24 23 22 23 23 22 24 22 21 19 18 19 18 19 17 17 14 18 19 17 15 5 4 7 4 4 5 7 4 5 7 8 6 8 3 4 4 3 2 2 1 2 1 5 3 3 1 2 2 1 1 6 4 6 8 6 4 7 7 7 8 4 5 5 2 3 3 5 6 9 14 10 7 6 9 9 9 9 9 8 8 8 8 8 9
26 26 25 24 23 23 22 22 23 25 23 20 18 19 18 20 18 17 16 15 16 18 18 12 5 5 5 3 3 4 1 4 8 10 9 11 9 6 5 5 4 2 2 3 1 1 3 6 6 5 3 1 4 4 4 5 6 7 7 9 8 9 5 6 4 5 5 3 5 4 7 9 7 10 7 6 5 5 8 9 9 8 8 8 7 8 8 9
26 26 25 25 24 22 21 21 23 23 23 21 20 18 17 17 17 16 15 14 16 18 13 12 10 9 6 7 4 6 5 8 12 10 8 6 10 5 8 7 5 3 3 2 1 2 4 7 5 1 5 3 6 6 6 5 5 8 10 7 10 8 5 6 6 4 2 5 6 9 4 5 5 5 5 4 7 7 8 8 9 8 8 8 7 7 8 8
26 26 25 25 24 23 22 21 22 23 23 22 22 20 17 16 17 16 14 16 12 8 11 8 10 7 5 3 7 9 9 10 5 6 5 1 1 9 11 9 5 5 4 4 1 3 4 7 3 2 4 5 6 7 7 7 8 8 8 8 8 12 7 6 5 4 3 6 8 9 5 9 5 6 6 5 6 9 9 9 8 8 7 8 7 7 8 9
27 26 26 26 25 24 23 23 23 25 23 23 22 19 17 18 18 16 14 12 7 4 5 1 10 3 10 6 9 10 9 7 6 7 4 2 2 10 9 5 6 9 8 7 0 5 3 4 4 7 6 7 8 8 9 10 10 9 9 9 5 6 10 6 6 7 7 7 7 10 11 13 12 6 7 8 7 7 9 9 8 8 9 9 8 8 9 9
27 26 27 26 25 24 24 24 24 28 23 26 26 22 21 18 12 9 12 11 13 8 7 11 15 13 2 15 5 8 5 8 8 10 6 8 4 3 2 4 9 12 8 6 5 7 3 2 3 7 10 11 11 12 10 5 8 10 12 11 7 9 10 8 3 2 6 9 8 11 10 13 13 13 6 9 9 8 7 6 5 6 7 8 9 9 9 9
28 27 27 26 25 25 24 25 27 27 30 24 20 16 14 14 11 9 10 11 12 18 3 14 14 1 5 8 13 6 6 9 9 6 8 5 8 7 5 8 6 8 8 8 7 7 3 7 9 11 9 11 13 13 11 3 3 0 8 6 5 6 3 5 6 3 1 3 11 12 13 13 13 12 12 9 10 8 8 8 8 8 8 9 9 10 10 11
28 28 28 27 27 26 25 27 28 27 25 19 22 18 15 22 22 15 18 12 8 2 4 20 21 12 3 7 7 15 11 6 7 9 10 4 8 11 7 8 10 8 9 7 9 3 2 7 11 12 12 11 12 12 4 2 2 6 6 6 6 4 4 3 4 4 2 4 6 11 11 13 13 11 8 7 9 11 11 11 12 12 11 10 11 12 12 11
29 28 28 28 28 27 27 29 27 23 22 17 19 14 4 12 4 4 18 12 8 2 4 13 17 4 3 4 8 1 7 7 7 10 3 7 12 11 9 10 13 11 7 6 8 6 7 11 10 11 4 6 5 4 2 5 5 3 6 5 5 5 4 3 4 2 4 3 6 3 8 12 13 13 13 14 14 12 12 13 13 12 13 12 11 12 12 9
28 28 29 29 28 27 29 26 26 21 16 17 18 14 3 4 5 18 4 11 8 2 5 13 16 11 5 5 6 1 10 12 12 12 10 8 13 10 13 10 12 8 8 12 10 8 8 10 8 7 7 7 4 5 7 6 5 6 6 6 7 4 6 4 4 5 2 3 2 5 7 9 12 12 13 13 13 13 13 14 13 11 13 13 12 11 10 10
28 29 29 28 27 28 29 25 22 16 12 19 17 12 4 4 4 8 11 8 12 7 2 12 14 14 8 8 7 7 11 9 10 14 12 9 14 8 12 14 15 9 12 14 13 11 7 2 4 5 9 10 8 7 9 8 9 8 8 6 6 6 5 3 4 3 3 2 1 7 8 11 11 12 11 13 14 12 10 8 7 7 6 6 4 3 3 9
28 29 29 29 28 27 27 24 14 11 12 12 17 12 3 4 2 7 9 9 7 4 1 2 3 6 7 4 4 10 8 5 6 12 10 12 11 7 10 9 9 11 14 15 12 10 4 1 1 4 8 11 10 8 10 8 9 8 7 6 3 5 6 7 8 7 4 4 6 4 4 8 8 13 14 7 5 8 9 10 12 12 11 10 11 12 10 8
28 28 30 29 30 28 29 18 15 14 15 17 14 12 6 2 3 3 3 7 11 7 6 11 7 7 7 7 8 5 4 9 3 3 9 2 2 7 7 7 3 13 14 14 10 2 2 1 3 7 7 6 8 9 9 10 9 7 5 7 1 1 5 7 7 4 4 5 3 2 8 5 4 6 8 6 4 8 7 9 11 11 11 10 10 9 8 8
29 29 30 31 30 31 19 10 17 18 15 12 13 6 6 3 1 1 5 5 9 9 14 3 8 4 4 10 11 9 10 10 5 5 7 1 8 2 10 8 4 3 6 7 1 6 5 5 4 3 8 9 7 8 7 11 7 7 3 2 5 6 7 7 8 8 1 4 4 2 4 6 7 5 6 5 5 7 9 10 11 10 10 9 8 7 7 6
30 30 30 31 30 26 9 11 20 21 15 3 11 8 4 4 2 3 3 7 6 13 10 5 3 2 3 9 11 12 4 16 8 8 1 3 2 4 5 12 12 10 6 8 8 3 5 6 7 8 7 7 10 4 7 10 8 1 0 2 6 4 6 7 6 3 2 1 4 6 4 3 7 6 4 4 6 9 10 10 11 11 9 8 7 6 6 6
30 30 31 29 31 15 5 13 20 21 11 3 10 8 4 5 3 4 5 6 5 5 3 11 2 7 6 10 13 8 5 5 7 7 4 1 3 2 10 9 11 10 4 0 6 3 3 2 4 5 8 8 3 4 5 5 10 1 4 5 6 4 4 5 3 3 2 4 6 7 8 5 10 6 5 5 8 9 10 10 10 8 7 6 4 4 4 4
30 30 30 31 20 8 9 9 15 12 5 6 8 8 7 4 5 7 7 7 9 7 8 6 11 14 14 14 12 8 9 4 3 7 9 8 6 1 5 6 10 10 5 4 8 4 2 0 2 1 4 3 5 6 3 6 6 10 8 9 6 4 3 2 2 4 3 6 5 6 4 3 5 5 7 7 6 7 8 8 4 5 4 3 2 3 3 3
30 30 29 30 14 11 13 15 16 6 7 5 11 10 7 3 9 8 7 3 10 5 3 10 12 16 18 19 14 11 8 6 7 14 11 7 7 4 8 6 4 5 4 4 5 5 4 4 3 1 1 3 3 6 7 1 4 8 5 6 7 3 4 4 3 2 5 7 3 2 3 3 7 4 5 3 3 1 3 5 4 5 6 4 2 2 1 2
28 29 31 21 11 11 15 15 13 9 8 9 11 9 8 9 3 9 5 9 10 8 12 13 16 17 21 19 8 13 10 8 9 14 14 11 11 12 13 10 11 7 7 9 5 5 4 4 3 3 2 2 5 8 4 3 1 2 7 9 7 4 4 5 5 7 7 6 3 2 1 3 12 13 7 3 2 3 4 4 1 2 2 3 3 1 1 2
29 27 31 12 11 12 5 7 10 8 11 11 9 6 10 9 10 12 7 11 4 15 10 13 16 19 18 18 13 14 11 10 12 12 12 11 10 11 13 11 14 10 9 10 6 6 3 5 5 3 3 4 5 9 6 4 6 6 10 9 8 7 6 7 6 4 3 3 3 2 1 5 7 8 15 17 14 2 2 5 3 3 4 2 2 1 1 2
29 30 18 9 10 6 5 11 8 13 14 10 9 7 6 8 8 11 9 9 4 4 16 13 14 16 20 16 14 16 11 7 15 11 15 12 12 12 12 8 15 13 6 13 11 11 7 3 8 11 4 8 5 2 6 4 11 9 0 7 6 5 4 6 6 8 5 1 3 5 0 4 2 1 4 4 2 3 2 1 1 1 2 3 2 3 4 4
31 25 13 10 8 5 8 10 11 12 10 10 11 10 11 10 9 16 12 9 5 11 13 17 17 18 16 12 12 16 10 5 11 11 13 13 14 14 16 15 13 10 7 11 5 5 14 4 4 5 2 1 7 2 1 4 5 1 1 3 1 5 2 3 1 1 2 2 2 2 5 4 7 5 4 5 5 3 3 4 4 5 5 4 4 5 5 4
25 13 13 11 12 6 9 7 12 12 10 10 12 11 13 13 10 12 9 10 9 11 16 18 15 15 14 7 7 18 3 5 15 11 10 14 12 13 12 10 13 16 13 11 7 7 3 6 2 4 1 3 2 2 0 3 6 5 2 4 2 4 5 4 1 1 1 2 5 4 4 7 6 11 12 9 5 5 4 4 4 5 5 5 5 4 5 4
15 15 15 15 14 8 9 10 10 10 9 9 14 13 14 11 7 11 6 13 12 20 19 17 12 14 15 13 12 19 10 7 13 11 10 11 10 16 15 14 14 13 14 10 5 2 10 4 2 1 5 2 2 2 1 4 3 5 1 6 3 1 2 1 3 2 2 4 2 4 6 6 3 5 2 6 4 7 6 6 6 5 4 5 5 5 6 6
13 12 10 15 10 9 10 11 13 8 7 10 14 17 9 8 1 6 11 19 16 15 13 12 7 11 12 11 12 17 12 13 13 12 9 15 6 14 14 11 14 13 10 6 3 4 5 4 2 3 2 2 1 2 3 1 2 2 2 1 5 3 4 2 2 3 3 5 4 5 7 7 6 7 3 4 7 9 8 6 7 7 7 6 6 6 6 7
11 13 10 12 11 11 10 11 10 10 8 9 13 17 10 7 7 11 14 15 14 14 14 10 10 9 10 13 12 15 15 14 14 11 10 11 9 12 19 10 8 10 9 2 2 3 1 2 2 2 2 3 1 4 7 4 2 2 1 1 3 2 4 5 4 2 2 5 3 4 6 5 6 8 11 9 4 2 7 7 7 7 7 6 6 7 7 6
12 7 7 11 10 12 12 12 9 8 10 15 15 12 9 7 3 11 15 20 10 12 10 11 11 9 8 10 17 14 13 14 13 10 10 7 10 5 13 13 8 11 9 4 2 1 4 2 3 2 2 3 5 6 8 10 8 4 4 5 2 1 1 3 1 4 3 4 5 6 7 3 5 8 9 10 11 8 5 3 1 2 4 6 7 7 7 7
8 5 6 11 14 13 13 11 11 14 14 13 12 6 8 8 7 6 6 3 6 6 3 10 12 12 12 13 14 13 10 12 11 11 11 8 14 5 9 11 11 11 9 2 1 2 2 2 5 5 5 7 3 5 4 4 3 7 8 9 11 10 5 5 5 2 0 3 4 6 8 4 2 1 5 6 2 1 1 1 2 2 4 4 5 7 8 8
12 9 7 14 14 16 17 15 10 11 8 10 10 8 7 8 11 11 6 3 4 5 3 6 9 10 11 10 13 13 10 11 10 11 10 11 13 9 4 10 9 15 12 8 8 2 1 4 7 6 4 4 3 1 3 1 1 2 1 5 5 5 3 3 6 4 1 2 2 1 4 5 2 3 2 1 2 1 2 1 3 2 2 2 1 3 3 3
8 4 5 18 15 18 14 10 7 8 6 4 9 8 5 5 7 9 9 6 7 2 4 5 9 8 8 10 14 12 17 9 15 14 11 13 6 9 5 9 13 13 9 4 6 5 2 3 5 2 3 0 2 2 3 0 2 2 5 3 4 11 13 10 4 1 4 3 2 3 5 5 1 0 2 2 1 1 1 2 4 3 2 2 3 3 4 2
5 7 6 8 14 11 11 13 15 14 10 6 9 5 3 3 10 10 11 11 8 8 9 6 7 6 10 8 11 12 16 5 9 12 7 10 6 4 11 11 18 9 13 10 12 10 5 3 5 6 3 1 1 1 0 1 1 5 6 8 7 0 5 3 2 0 2 7 7 5 9 8 2 1 1 2 2 3 4 5 6 5 2 2 4 5 5 6
7 4 5 8 11 10 13 8 12 12 12 8 12 9 8 4 2 7 11 11 5 8 8 7 9 7 5 7 10 11 15 14 3 12 4 5 5 1 6 12 16 13 5 4 3 10 5 6 8 9 10 10 9 9 11 10 12 6 3 2 7 5 8 4 5 3 7 4 6 3 7 12 1 1 2 4 2 4 5 4 4 6 5 4 5 5 6 7
2 8 3 7 6 5 7 5 6 10 10 10 7 7 10 6 1 1 0 9 2 9 5 6 5 8 10 12 10 12 13 14 8 7 11 7 4 1 2 8 14 9 5 7 10 12 1 3 7 10 12 13 15 18 10 10 7 8 9 10 10 13 12 8 2 5 8 6 7 10 13 16 4 4 4 5 4 7 6 5 6 5 6 5 4 4 4 4
1 2 8 9 3 6 7 7 6 10 13 19 11 13 13 13 8 3 4 6 5 6 5 7 10 11 11 14 12 12 14 14 4 6 12 11 4 3 2 1 8 5 5 6 8 4 2 4 10 12 12 12 12 12 12 17 15 17 17 15 16 15 13 12 11 13 13 7 8 10 15 15 16 6 7 8 7 7 6 6 7 5 5 5 5 3 3 3
2 0 2 1 4 13 13 12 12 14 12 19 5 13 17 15 13 10 5 3 5 7 8 1 10 14 16 16 13 8 12 12 9 7 10 6 7 5 5 1 3 3 1 5 6 7 6 7 12 10 14 13 8 6 10 13 13 12 16 16 15 15 13 13 14 15 11 9 12 16 18 19 18 14 12 11 10 8 10 6 2 1 2 3 5 5 5 5
2 3 2 2 2 3 6 2 14 11 14 20 7 15 17 18 17 12 8 7 4 7 10 8 14 17 17 15 12 9 14 8 8 11 6 6 11 5 3 3 2 2 3 4 5 2 2 7 7 9 11 11 3 5 9 12 10 11 15 12 13 15 16 17 16 16 17 14 14 20 20 18 18 12 14 13 11 10 3 5 3 1 4 3 2 3 5 6
1 3 4 2 3 5 7 7 11 10 11 17 5 10 14 18 19 14 9 12 8 11 6 8 14 16 15 16 15 12 15 16 14 11 5 10 3 5 7 7 6 4 2 5 5 2 2 4 6 5 5 10 5 4 1 7 10 14 11 12 13 15 16 19 15 18 20 18 19 21 20 18 14 10 12 12 8 6 5 4 4 4 2 2 4 5 6 8
2 1 2 7 4 5 8 8 10 11 7 12 9 11 12 17 18 13 8 9 13 11 12 13 10 13 12 14 15 15 13 14 9 14 16 17 11 10 9 3 9 8 5 3 1 1 3 3 3 2 6 8 7 8 6 2 2 1 3 7 11 13 13 13 14 15 14 18 19 19 16 14 19 11 10 3 6 7 6 5 3 2 5 6 7 7 8 9
2 1 2 1 5 6 9 7 9 10 10 11 11 15 11 19 16 15 7 2 3 2 9 10 8 11 11 15 18 18 10 7 4 10 12 14 11 13 10 10 15 13 8 12 7 6 7 4 4 5 8 10 7 10 7 4 1 4 8 12 17 18 17 18 17 19 18 18 17 14 16 18 10 5 8 5 6 6 6 6 4 6 9 8 9 8 8 7
Wind_Direction
192 191 189 185 180 173 171 168 170 171 171 170 168 165 166 161 162 163 160 153 155 156 149 150 147 144 136 134 171 149 71 223 228 189 226 240 287 226 161 314 134 147 187 277 247 304 10 5 272 179 220 206 133 228 119 204 233 206 218 223 220 254 205 169 203 179 75 148 144 164 174 181 169 164 165 174 193 258 136 194 129 74 95 87 105 92 113 129
192 190 188 186 181 177 172 171 172 171 170 168 167 167 164 164 165 163 154 155 155 155 153 152 150 143 143 165 181 132 315 249 249 223 222 328 286 226 178 222 104 125 17 299 311 329 313 305 244 227 214 207 120 191 150 175 188 209 213 221 227 222 339 349 164 103 210 153 157 162 178 193 186 164 162 199 191 192 186 204 191 189 159 116 122 128 141 148
188 189 188 184 180 178 172 171 172 171 168 168 165 165 164 165 164 162 152 155 152 153 151 155 152 148 147 143 142 72 22 283 260 256 250 213 244 253 201 198 162 150 138 294 311 293 298 301 329 231 224 230 168 195 195 158 188 226 251 214 238 181 116 87 81 92 29 123 147 154 172 205 145 169 137 214 192 193 209 192 195 204 180 165 137 149 154 170
185 186 189 185 181 179 173 171 172 170 166 166 163 162 163 162 163 160 155 155 153 150 154 153 153 144 146 151 162 124 216 264 267 241 125 162 203 250 217 185 175 162 139 303 321 317 292 285 279 249 232 248 151 229 183 168 210 156 239 214 242 134 153 132 101 89 74 257 151 157 151 178 157 165 170 196 204 203 216 206 197 200 193 171 154 153 159 170
181 183 188 187 181 179 174 170 171 168 164 166 164 163 161 160 157 156 155 158 155 154 152 149 141 136 134 149 146 143 209 269 244 166 199 156 168 210 208 182 176 174 162 131 311 281 269 261 245 242 244 215 226 193 222 158 232 332 225 14 331 14 148 114 102 73 94 351 148 143 157 190 135 152 196 199 209 201 209 203 194 199 196 163 155 157 163 169
179 180 184 188 182 178 174 171 170 167 162 163 164 161 159 157 154 155 159 160 155 157 153 145 133 136 131 122 126 113 231 156 57 84 288 65 180 205 202 167 175 152 114 121 229 274 237 232 227 207 209 231 196 212 193 200 144 229 182 312 357 5 33 102 118 97 142 151 149 163 173 131 172 189 198 211 222 60 45 41 44 55 179 155 149 150 165 173
177 176 179 186 184 180 175 172 171 164 162 162 162 158 155 152 156 155 158 158 155 151 152 142 146 134 122 137 84 134 224 291 132 169 92 117 171 183 141 124 149 141 128 125 207 230 220 240 214 208 208 223 210 214 131 187 184 261 224 115 99 360 71 63 89 109 22 164 157 146 126 169 181 201 185 222 230 76 63 48 49 84 92 124 143 162 171 179
176 175 176 179 185 181 177 174 173 170 165 162 160 155 151 152 153 157 154 156 153 150 139 137 133 134 141 137 126 132 231 254 140 212 111 131 129 123 129 134 143 134 150 180 188 218 227 234 214 212 225 210 175 208 140 184 199 224 235 159 76 37 77 80 114 146 158 70 81 126 162 190 191 188 133 225 225 136 95 86 84 129 151 158 160 172 177 183
175 174 172 177 181 183 176 174 169 167 165 162 155 148 149 147 150 154 153 154 156 155 145 139 139 140 142 128 150 162 220 239 57 136 128 148 125 130 141 131 162 153 170 181 201 218 222 235 246 227 202 216 149 203 149 198 208 223 19 112 121 86 80 109 132 163 172 140 174 162 181 133 89 42 241 224 216 161 135 121 107 133 166 178 176 178 181 185
175 174 171 174 180 180 177 172 168 165 165 160 149 147 148 146 148 152 159 156 154 153 144 144 132 133 121 128 149 208 251 330 117 130 120 147 123 128 155 123 160 169 153 187 184 210 204 232 246 290 339 299 199 226 164 206 68 116 121 110 112 99 120 193 202 157 165 162 182 181 170 157 118 195 230 203 137 127 165 177 143 163 176 182 184 186 189 187
174 174 170 170 176 178 176 170 165 163 159 153 146 149 148 148 146 154 160 163 147 151 142 144 142 131 137 179 169 209 194 261 249 137 136 156 127 140 170 153 163 171 185 159 205 210 205 214 98 316 287 277 212 193 206 173 99 159 126 116 104 121 83 119 130 149 172 144 190 240 151 117 150 189 254 139 129 166 187 196 187 199 196 187 192 191 194 198
173 172 169 167 171 173 173 169 163 160 148 144 151 150 148 144 146 151 158 162 160 154 148 155 150 143 84 176 207 188 323 297 177 154 142 175 154 357 135 163 173 177 189 179 211 225 228 168 172 195 244 302 221 88 198 150 186 154 160 163 144 156 160 185 161 172 252 125 190 234 143 205 183 216 206 126 140 180 192 195 196 205 211 203 194 190 192 201
171 170 169 166 168 170 169 164 161 156 151 148 147 143 144 145 144 150 153 160 161 162 151 152 157 138 124 178 254 288 301 258 172 156 158 179 94 68 27 21 77 344 280 238 211 187 140 172 214 228 264 307 105 213 68 170 143 154 207 206 153 189 214 166 118 158 224 94 213 228 221 215 204 211 146 139 142 155 188 201 198 200 204 204 195 196 198 197
169 169 167 163 165 169 164 160 158 155 149 145 141 141 146 143 139 146 157 155 155 154 153 161 139 184 179 210 230 204 222 221 147 176 180 161 161 109 112 78 69 58 350 352 51 349 143 137 209 264 37 310 199 294 178 105 160 193 168 229 211 186 206 143 181 153 203 100 191 249 251 250 186 179 133 141 151 164 182 198 198 202 200 199 199 202 203 199
170 170 165 161 160 161 160 159 154 148 148 143 139 141 143 144 139 147 154 150 152 151 149 146 150 149 199 195 158 152 198 213 184 196 172 177 167 136 127 139 98 69 57 68 89 150 158 155 166 195 187 315 106 154 143 173 191 196 168 210 219 222 140 143 132 186 213 152 212 217 247 255 106 132 130 141 165 191 199 188 189 194 199 201 200 206 209 209
169 169 163 158 155 155 155 153 149 147 147 141 136 135 132 132 138 146 156 149 150 136 138 145 183 212 191 209 155 137 183 185 203 173 173 205 183 168 142 115 117 106 148 54 157 176 177 177 197 165 112 130 181 203 170 158 201 204 212 192 202 207 169 160 180 163 323 141 203 217 256 251 151 111 128 162 184 189 207 207 199 196 198 200 207 208 214 215
166 166 159 154 154 152 150 149 145 148 142 140 127 123 124 134 139 144 151 141 135 146 157 166 189 219 213 92 130 185 191 192 72 130 164 267 286 132 127 122 135 119 101 118 189 196 154 187 103 196 204 190 190 216 190 199 191 203 208 228 198 201 189 207 92 217 168 212 191 221 241 254 98 154 146 163 196 196 206 210 207 206 210 210 210 213 215 218
165 162 156 152 152 152 148 144 145 144 140 129 120 123 134 140 134 136 129 136 135 175 192 312 173 129 262 147 197 205 176 148 174 140 133 137 205 151 141 145 129 137 138 118 224 191 185 173 189 202 178 204 196 217 208 201 201 192 185 213 170 220 219 218 180 154 186 215 236 197 228 246 249 143 162 169 177 195 210 211 214 216 217 219 217 217 220 223
163 158 153 151 151 150 148 144 148 142 136 121 117 127 126 124 140 140 145 146 146 146 190 178 175 188 196 178 167 109 143 128 119 149 157 157 177 151 52 87 156 147 160 159 164 179 186 149 199 228 203 197 202 208 209 235 206 193 181 202 212 194 205 212 98 136 209 192 218 215 217 234 238 246 177 162 180 198 206 204 214 220 222 224 222 222 224 224
160 156 150 149 149 151 147 141 142 139 134 122 134 137 138 141 143 158 173 207 200 169 340 168 186 303 64 163 156 99 85 150 146 186 149 160 141 162 145 158 153 193 162 185 148 196 159 182 193 205 211 204 206 211 223 38 284 219 198 212 232 223 165 89 91 97 259 224 219 223 237 246 248 237 236 190 175 201 219 221 221 224 227 227 226 227 228 225
159 154 150 149 148 148 145 142 145 147 138 135 151 157 165 169 156 174 174 189 186 16 322 163 183 186 31 109 111 141 137 172 202 165 169 176 174 154 161 166 166 188 190 173 151 105 223 209 208 205 214 212 203 211 207 229 352 228 216 222 219 210 223 100 121 130 183 232 223 222 243 250 250 249 241 241 221 216 217 226 229 229 229 227 224 226 226 229
157 152 149 149 148 148 148 151 148 153 142 148 170 178 167 183 333 90 137 155 190 130 299 173 179 177 130 144 156 66 166 141 177 165 130 184 166 182 162 189 175 189 119 106 115 143 199 214 208 201 103 77 89 140 163 234 232 234 231 203 231 207 98 126 93 115 138 198 248 144 245 254 253 250 245 238 237 238 231 232 234 234 233 231 225 222 224 211
155 152 148 149 148 147 150 150 151 154 149 170 185 205 137 22 296 131 158 114 126 13 133 152 180 194 119 123 171 167 184 170 172 172 171 214 169 216 157 189 187 159 154 173 169 167 199 218 220 122 139 123 122 177 201 215 236 233 217 222 215 165 178 205 158 156 186 237 322 15 304 274 266 254 247 237 233 232 232 235 238 234 238 234 226 217 217 214
155 150 150 147 147 150 151 146 150 152 177 182 193 198 37 294 283 184 150 163 154 171 220 176 185 187 165 152 177 200 192 172 165 174 170 194 177 174 173 190 177 151 184 188 191 186 183 76 15 183 152 180 177 184 194 205 222 219 243 228 216 147 181 319 133 160 126 244 336 294 286 272 250 247 238 230 223 225 219 212 228 234 236 243 263 292 236 221
153 151 147 147 149 147 148 142 160 175 163 192 202 210 261 292 319 337 159 109 133 149 42 34 332 232 156 48 133 189 197 150 190 164 163 200 157 148 192 185 182 191 185 187 197 205 171 271 329 153 178 183 177 184 200 201 224 210 219 241 347 170 155 106 125 153 199 218 182 208 275 264 239 225 231 213 132 215 216 219 227 227 219 209 224 232 230 228
153 149 149 148 148 148 141 155 172 164 176 193 205 216 235 206 316 8 197 130 168 153 134 189 164 180 119 172 140 210 142 193 94 87 162 276 318 196 130 187 205 193 183 178 195 195 179 97 182 154 163 183 194 206 195 200 219 224 193 182 153 217 135 147 159 196 223 245 125 245 224 267 123 211 214 191 190 219 201 205 232 230 224 206 210 217 218 221
152 151 148 151 150 144 154 178 161 161 176 210 215 190 199 170 263 306 205 129 198 154 166 79 183 169 238 157 166 159 173 185 106 99 176 344 196 353 186 166 137 15 145 141 59 208 128 130 128 177 164 172 191 216 184 194 218 224 33 177 132 150 152 170 182 206 290 82 95 214 243 264 272 243 140 152 200 232 232 224 225 225 218 210 203 206 208 211
153 151 151 153 154 158 160 138 154 178 178 132 181 187 136 157 173 234 249 139 218 135 179 177 222 68 226 155 176 188 33 118 138 179 13 126 296 162 258 181 186 164 155 157 199 72 140 141 169 149 177 180 204 245 160 182 220 248 357 250 151 169 174 173 197 200 5 333 240 176 189 249 252 238 144 178 253 246 240 234 226 221 203 198 193 195 200 212
153 154 152 153 154 154 139 158 169 173 186 113 149 149 133 135 225 209 193 199 113 132 44 150 145 159 128 164 183 197 145 176 208 115 131 106 335 259 209 190 188 137 34 178 216 113 348 135 168 156 163 193 85 22 342 177 205 153 162 85 83 80 117 179 198 197 185 210 245 188 183 239 264 249 203 180 230 241 239 235 235 191 171 172 175 182 201 212
154 152 153 150 142 122 141 141 172 176 129 144 120 119 132 159 174 207 155 232 138 162 178 118 183 170 167 165 182 177 179 132 64 130 153 178 170 274 24 326 137 131 165 80 64 36 53 1 252 39 183 62 109 46 28 22 61 137 155 112 111 118 138 173 206 205 201 237 232 115 178 258 278 230 233 190 212 222 234 237 195 123 132 165 170 194 208 222
154 154 151 152 154 155 147 163 179 141 136 125 132 138 149 174 187 174 179 155 135 84 94 156 164 157 173 176 177 182 182 120 146 148 154 166 157 186 144 147 122 122 119 135 84 111 105 106 173 69 2 161 106 91 41 330 143 161 150 144 127 107 157 179 189 202 232 241 100 333 160 227 226 237 221 228 50 28 248 251 202 155 156 163 173 185 210 240
154 150 150 154 148 152 163 176 154 136 135 149 144 149 169 159 252 203 175 126 190 173 185 167 173 169 180 184 158 168 158 146 161 172 164 177 171 179 186 187 169 157 190 180 169 128 122 153 85 61 280 198 169 112 54 48 230 243 167 167 184 178 173 201 187 205 217 242 109 94 218 248 238 242 272 213 274 217 217 233 229 142 144 145 163 162 202 242
151 147 153 149 128 173 167 109 118 134 146 162 155 168 175 157 185 202 170 166 176 146 184 166 165 173 176 175 183 163 159 170 165 187 168 176 183 193 195 203 181 185 183 173 131 164 156 116 169 128 155 240 226 162 134 171 211 202 191 181 195 194 188 210 200 220 235 79 256 92 145 272 298 274 237 252 253 277 188 200 231 263 277 235 166 179 237 224
148 149 159 154 161 175 109 137 125 147 155 170 160 170 205 182 203 195 168 193 105 336 143 158 154 164 170 187 172 159 165 171 166 176 175 170 189 186 198 242 190 197 225 156 173 174 175 221 209 166 190 156 206 279 171 170 175 199 12 200 204 207 181 194 199 198 205 217 86 259 232 233 212 118 355 307 22 122 193 159 148 228 253 267 284 278 254 245
149 156 143 149 172 179 139 141 144 158 161 160 159 183 180 195 195 182 184 164 142 151 145 144 148 161 177 189 164 173 183 144 188 154 186 178 193 195 189 195 201 206 169 157 180 170 199 173 42 9 352 15 180 147 329 122 149 174 231 32 299 217 14 227 31 331 129 138 147 154 228 268 228 13 259 222 249 208 174 193 191 234 228 219 249 247 235 220
148 157 155 166 179 167 151 149 151 164 168 169 163 185 197 190 187 184 187 126 136 144 139 146 151 165 170 159 158 177 13 170 177 175 194 203 200 203 191 187 188 191 176 187 134 176 178 199 65 121 159 98 47 339 319 284 188 181 132 207 173 16 105 101 121 112 0 333 253 153 250 256 272 269 259 261 209 230 171 193 190 221 228 206 228 228 206 193
155 147 164 168 184 151 156 152 155 175 185 185 177 189 201 198 223 174 121 154 158 138 147 150 180 169 177 178 175 184 172 153 171 181 192 188 215 210 196 201 188 188 202 186 167 258 174 123 15 150 151 71 46 359 359 51 315 98 220 188 130 209 19 135 236 125 230 238 247 151 220 254 235 291 153 189 195 240 206 187 201 205 179 213 213 201 183 172
145 155 144 174 167 142 156 156 155 178 195 193 197 204 200 195 1 145 133 114 136 150 155 161 152 195 179 172 176 178 162 183 171 189 198 173 242 189 202 196 179 193 191 4 198 190 120 115 110 351 61 77 169 218 131 97 49 319 159 34 182 185 214 181 238 219 205 221 244 208 217 247 238 235 165 185 221 237 239 198 184 199 202 209 198 187 162 144
130 137 151 176 148 147 148 157 168 169 188 195 200 215 194 211 123 136 149 135 148 162 169 173 149 200 186 184 166 176 165 196 161 194 182 180 215 172 198 178 168 175 187 85 204 115 340 139 118 47 90 126 149 203 194 169 185 57 232 218 37 353 248 178 201 310 245 247 234 245 155 249 193 227 241 246 215 223 237 212 203 210 202 188 181 168 149 148
142 141 159 149 148 149 149 160 163 179 196 199 201 211 180 147 132 150 158 144 161 172 187 161 177 145 186 186 163 169 177 190 170 190 214 154 208 124 207 179 167 163 150 39 49 177 167 346 144 115 344 176 175 210 209 171 166 166 185 179 184 214 14 338 233 220 227 249 242 271 254 234 223 192 212 227 239 245 268 265 203 199 202 185 162 155 158 164
158 123 129 154 153 150 152 158 169 187 200 219 214 172 163 165 136 158 134 84 111 358 211 173 164 176 168 163 173 162 158 189 181 191 200 184 193 199 220 196 142 149 120 84 46 195 123 202 145 140 146 207 164 34 7 9 195 193 181 188 185 168 175 185 217 84 138 222 241 233 251 259 80 160 190 222 195 82 79 335 297 220 201 173 152 156 170 168
155 152 169 164 162 167 160 160 196 195 209 201 195 169 152 107 140 158 138 57 123 148 331 148 163 162 157 170 163 160 155 184 186 192 199 211 196 224 120 194 159 143 155 176 191 63 86 81 104 161 187 166 52 55 29 58 354 359 278 211 186 204 189 205 224 188 193 243 31 326 337 260 101 127 252 211 126 128 91 256 246 239 208 126 95 116 101 143
158 91 95 153 170 177 167 173 174 195 214 184 85 56 90 137 132 153 137 168 157 123 135 175 168 141 181 173 170 161 165 181 179 199 197 209 203 195 146 179 130 148 156 130 75 200 112 118 100 69 52 55 190 198 170 141 331 263 244 270 188 195 198 209 232 145 186 129 224 230 239 267 219 311 245 300 332 3 293 239 248 254 202 162 169 175 165 163
97 127 118 172 182 201 180 174 180 199 202 135 179 117 347 96 145 152 173 174 173 165 177 144 156 199 164 174 166 176 171 169 207 203 207 190 183 49 145 151 152 162 176 179 185 166 173 181 129 129 122 113 357 122 34 57 221 223 220 201 213 119 70 64 94 268 248 179 213 205 249 264 164 144 233 262 242 245 242 222 214 245 228 195 187 185 182 184
115 56 92 155 191 206 198 193 193 186 180 163 172 152 158 112 346 172 166 169 142 171 160 176 167 135 129 149 172 178 180 200 144 214 234 180 169 64 158 164 172 179 184 72 113 137 221 155 161 162 165 173 183 189 199 199 201 193 45 65 180 198 180 145 226 170 240 179 190 221 253 258 127 256 224 209 216 251 237 229 193 215 234 215 194 187 186 182
154 128 123 137 184 221 280 334 329 183 143 156 180 188 163 139 165 39 111 159 60 159 183 114 113 131 135 155 169 182 189 209 218 176 193 180 123 172 140 183 180 190 85 127 141 156 170 162 206 189 191 199 198 206 198 97 92 186 202 195 195 204 207 206 228 218 218 209 202 212 228 253 216 185 201 205 204 216 212 191 214 214 213 222 218 183 171 169
40 105 155 152 97 258 222 228 209 170 183 169 181 168 180 175 138 149 258 169 204 161 122 152 156 160 174 169 176 187 192 188 73 163 188 177 94 104 102 138 179 68 113 125 175 134 141 210 211 215 224 225 216 206 152 157 173 193 197 202 204 201 198 196 200 219 212 218 242 231 235 247 243 202 190 206 208 220 221 213 215 214 210 193 180 155 116 131
139 330 164 287 143 183 188 213 203 191 183 178 178 161 180 169 163 166 163 306 136 188 165 64 185 188 171 180 162 182 185 200 178 200 177 167 110 128 109 10 183 78 220 151 182 191 180 215 210 213 229 235 245 211 146 179 183 183 194 189 190 189 193 195 217 231 221 214 231 233 229 238 249 229 227 215 205 201 213 205 144 114 94 130 136 156 169 183
38 70 101 124 201 344 209 77 186 188 179 178 170 175 176 178 180 173 162 147 180 197 211 184 193 192 179 175 170 177 173 180 211 198 170 159 156 136 123 78 286 124 183 132 166 345 200 227 211 203 228 235 190 158 173 186 193 200 203 197 186 180 187 195 213 220 220 223 228 242 244 237 240 234 230 229 219 218 144 89 87 184 223 184 150 161 184 188
149 152 147 58 4 128 161 148 169 177 185 182 176 187 182 185 179 164 159 158 168 206 203 232 188 189 180 179 180 192 186 198 193 174 103 116 104 177 160 169 140 98 207 148 154 267 221 218 193 154 226 235 197 106 5 220 191 208 203 197 182 189 197 205 213 222 224 232 236 240 247 257 263 247 238 228 220 84 105 139 194 202 175 176 201 208 207 205
49 19 334 149 142 157 158 162 173 185 170 180 193 178 191 191 188 164 152 180 185 176 188 206 176 178 182 187 193 210 190 199 196 162 158 153 173 186 160 184 138 140 170 142 111 117 165 223 36 156 220 233 197 179 167 68 28 358 156 153 161 171 194 202 219 215 210 221 234 245 252 253 254 230 245 164 130 151 172 191 192 176 200 207 215 216 214 215
329 296 127 273 152 175 160 169 177 167 198 194 195 182 185 189 185 168 148 185 200 187 194 188 174 165 183 193 205 210 193 160 106 141 164 179 177 170 187 161 158 154 167 186 178 167 181 175 175 171 215 235 194 173 139 113 101 257 220 195 191 195 198 205 213 215 212 212 224 225 235 236 251 125 202 152 160 165 173 189 198 225 220 203 209 218 223 220